This is the latest recevied weather packets stored in our database for station/object KC4LZN. If no packets are shown the sender has not sent any weather packets the latest 10 day(s).
| Time | Temp. | Humidity | Pressure | Rain* | Wind** | Luminosity | Snow |
|---|---|---|---|---|---|---|---|
| 1777726830 | 23.89° C | 92% | 1011.3 hPa | 0 mm | - | 141 W/m² | - |
| 1777726526 | 23.33° C | 93% | 1011.2 hPa | 0 mm | - | 128 W/m² | - |
| 1777726223 | 23.33° C | 94% | 1011.2 hPa | 0 mm | - | 122 W/m² | - |
| 1777725919 | 23.33° C | 94% | 1011.1 hPa | 0 mm | - | 138 W/m² | - |
| 1777725617 | 23.33° C | 95% | 1011 hPa | 0 mm | - | 137 W/m² | - |
| 1777725315 | 22.78° C | 97% | 1010.9 hPa | 0 mm | - | 226 W/m² | - |
| 1777725011 | 22.78° C | 98% | 1010.7 hPa | 0 mm | - | 199 W/m² | - |
| 1777724708 | 22.22° C | 98% | 1010.9 hPa | 0 mm | - | 139 W/m² | - |
| 1777724405 | 22.22° C | 98% | 1010.7 hPa | 0 mm | - | 103 W/m² | - |
| 1777724102 | 22.22° C | 99% | 1011.1 hPa | 0 mm | - | 142 W/m² | - |
| 1777723800 | 22.22° C | 99% | 1010.8 hPa | 0 mm | - | 117 W/m² | - |
| 1777723496 | 21.67° C | 99% | 1010.8 hPa | 0 mm | - | 94 W/m² | - |
| 1777723193 | 21.67° C | 99% | 1011.1 hPa | 0 mm | - | 79 W/m² | - |
| 1777722890 | 21.67° C | 99% | 1010.6 hPa | 0 mm | - | 82 W/m² | - |
| 1777722586 | 21.67° C | 99% | 1010.5 hPa | 0 mm | - | 74 W/m² | - |
| 1777722283 | 21.67° C | 99% | 1010.7 hPa | 0 mm | - | 58 W/m² | - |
| 1777721981 | 21.11° C | 99% | 1010.5 hPa | 0 mm | - | 65 W/m² | - |
| 1777721678 | 21.11° C | 99% | 1010.8 hPa | 0 mm | - | 49 W/m² | - |
| 1777721377 | 21.11° C | 99% | 1010.9 hPa | 0 mm | - | 40 W/m² | - |
| 1777721074 | 21.11° C | 99% | 1010.7 hPa | 0 mm | - | 33 W/m² | - |
| 1777720771 | 21.11° C | 99% | 1010.8 hPa | 0 mm | - | 27 W/m² | - |
| 1777720468 | 21.11° C | 99% | 1010.7 hPa | 0 mm | - | 21 W/m² | - |
| 1777720166 | 21.11° C | 99% | 1010.4 hPa | 0 mm | - | 19 W/m² | - |
| 1777719863 | 20.56° C | 99% | 1010.3 hPa | 0 mm | - | 18 W/m² | - |
| 1777719560 | 20.56° C | 99% | 1010.2 hPa | 0 mm | - | 12 W/m² | - |
* Rain latest hour (hover to see other rain measurements)
** Current wind speed in m/s (hover to see current wind gust speed)